Location: Krasnoyarskiy Pitomnik
(51.1333°N, 71.6167°E)
Time: 10:17:46
(UTC+00:00)

Cosmos 1892 - Pass Details

Date: 22 October 2021
Orbit: 501 x 522 km, 82.5° (Epoch: 06 December)

Event Time Altitude Azimuth Distance (km) Brightness Sun altitude
Rises 14:31:45 0° 345° (NNW) 2,624 6.6 -23.4°
Reaches altitude 10° 14:33:55 10° 341° (NNW) 1,731 5.7 -23.7°
Maximum altitude 14:37:36 51° 265° (W) 642 3.4 -24.3°
Enters shadow 14:38:15 45° 228° (SW) 702 3.5 -24.4°
